Tracking 35237 objects as of 5-Sep-2026
HD Live streaming from Space Station
objects crossing your sky now

CZ-6A DEB

Track CZ-6A DEB now!
10-day predictions


NORAD ID: 54450
Int'l Code: 2022-151GA
Launch date: November 11, 2022
Source: People's Republic of China (PRC)
Launch site: Taiyaun Space Center, China (TSC)

Note: This is SATELLITE DEBRIS
Your satellite tracking list
Your tracking list is empty




NASA's NSSDC Master Catalog

Two Line Element Set (TLE):
1 54450U 22151GA  26248.16942463  .00000416  00000-0  11973-3 0  9991
2 54450  98.6553 307.2516 0147174 106.7905 254.9489 14.43977756200525
Source of the keplerian elements: AFSPC